Flag for U.S.A. Weather past 2 weeks in Charleston, West Virginia, U.S.A.

53 °F

Light rain. Low clouds.

Feels Like: 53 °F
Forecast: 52 / 62 °F
Wind: No wind

Location: Yeager Airport

Current Time: Dec 1, 2015 at 3:30:43 AM

Latest Report: Dec 1, 2015 at 1:54 AM

Visibility: 8 mi

Pressure: 30.00 "Hg

Humidity: 89%

Dew point: 50 °F

Location of CharlestonLocation

Historic Weather in Charleston — Graph


Charleston temperature yesterday

Maximum temperature yesterday: 56 °F (at 12:54 PM)
Minimum temperature yesterday: 45 °F (at 12:54 AM)
Average temperature yesterday: 50 °F

Past Weeks' High & Low Weather Summary

High71 °F (Nov 27, 2:54 PM)97% (Nov 29, 3:54 AM)30.64 "Hg (Nov 29, 3:54 AM)
Low23 °F (Nov 23, 6:54 AM)17% (Nov 20, 3:54 PM)29.78 "Hg (Nov 21, 5:54 PM)
Average49 °F61%30.23 "Hg
* Reported Nov 16 1:54 AM — Dec 1 1:54 AM, Charleston, Weather by CustomWeather, © 2015

Note: Actual official high and low records may vary slightly from our data, if they occured in-between our weather recording intervals... More about our weather records


Charleston weather history for previous 24 hours

Time TempWeatherWind HumidityBarometerVisibility
1:54 AM
Tue, Dec 1
53 °FLight rain. Low clouds.No wind89%30.00 "Hg8 mi
12:54 AM53 °FRain. Fog.No wind89%29.99 "Hg6 mi
11:54 PM
Mon, Nov 30
52 °FOvercast.No wind86%29.99 "Hg10 mi
10:54 PM52 °FOvercast.No wind86%30.01 "Hg10 mi
9:54 PM51 °FPassing clouds.No wind86%30.02 "Hg10 mi
8:54 PM51 °FOvercast.No wind89%30.03 "Hg10 mi
7:54 PM51 °FMostly cloudy.5 mph86%30.04 "Hg10 mi
6:54 PM51 °FOvercast.3 mph86%30.05 "Hg10 mi
5:54 PM51 °FLow clouds.3 mph89%30.05 "Hg10 mi
4:54 PM51 °FMostly cloudy.5 mph92%30.06 "Hg9 mi
4:03 PM52 °FDrizzle. Fog.5 mph89%30.06 "Hg2 mi
3:54 PM52 °FDrizzle. Fog.5 mph89%30.06 "Hg2 mi
2:54 PM52 °FDrizzle. Fog.6 mph93%30.06 "Hg5 mi
1:54 PM53 °FLight rain. Fog.6 mph89%30.06 "Hg3 mi
12:54 PM56 °FMostly cloudy.8 mph75%30.07 "Hg10 mi
11:54 AM55 °FLight rain. Mostly cloudy.3 mph83%30.09 "Hg10 mi
10:54 AM52 °FPartly sunny.3 mph89%30.11 "Hg10 mi
9:54 AM48 °FDrizzle. Fog.3 mph93%30.11 "Hg3 mi
8:54 AM47 °FFog.3 mph93%30.11 "Hg3 mi
7:54 AM46 °FDrizzle. Fog.No wind93%30.12 "Hg3 mi
6:56 AM45 °FLight rain. Fog.6 mph97%30.12 "Hg3 mi
5:54 AM45 °FLight rain. Fog.3 mph97%30.13 "Hg1 mi
4:54 AM46 °FLight rain. Fog.5 mph93%30.11 "Hg1 mi
3:54 AM46 °FFog.3 mph93%30.13 "Hg1 mi
Weather by CustomWeather, © 2015

See weather overviewHow to use our weather pages